Overview Statistics Trail Chart Weather Telemetry Raw packets
 

This is the latest recevied weather packets stored in our database for station/object IN3MWE-10. If no packets are shown the sender has not sent any weather packets the latest 10 day(s).

<< 6 7 8 9 10 11 12 >>
Time Temp. Humidity Pressure Rain* Wind** Luminosity Snow
1788493814 18.33° C 72% 985.2 hPa - - - -
1788492914 19.44° C 72% 985.3 hPa - - - -
1788492014 19.44° C 68% 985.3 hPa - - - -
1788491114 19.44° C 70% 985.1 hPa - - - -
1788490227 20° C 64% 985.1 hPa - - - -
1788489326 20° C 60% 985.2 hPa - - - -
1788488426 20° C 63% 985.2 hPa - - - -
1788487526 20° C 63% 985.2 hPa - - - -
1788486626 21.11° C 58% 985.1 hPa - - - -
1788485726 21.11° C 56% 985.1 hPa - - - -
1788484826 21.67° C 52% 985 hPa - - - -
1788483926 21.67° C 48% 984.9 hPa - - - -
1788483025 21.67° C 52% 984.9 hPa - - - -
1788482125 21.67° C 51% 984.8 hPa - - - -
1788481225 21.67° C 52% 984.7 hPa - - - -
1788480325 21.67° C 53% 984.8 hPa - - - -
1788479425 22.22° C 51% 984.8 hPa - - - -
1788478525 22.22° C 52% 984.9 hPa - - - -
1788477624 22.78° C 52% 984.9 hPa - - - -
1788476724 22.78° C 50% 984.7 hPa - - - -
1788475824 23.33° C 49% 984.5 hPa - - - -
1788474924 23.33° C 51% 984.4 hPa - - - -
1788474024 23.33° C 51% 984.2 hPa - - - -
1788473124 23.33° C 49% 984.4 hPa - - - -
1788472224 23.89° C 45% 984.4 hPa - - - -

* Rain since midnight (hover to see other rain measurements)
** Current wind speed in m/s (hover to see current wind gust speed)